[[{"header":{"parameterUnit":"m.s-1","parameterCategory":1,"la1":30.2992,"la2":30.254,"lo1":-89.0895,"lo2":-89.0443,"dy":0.0025,"dx":0.0025,"nx":19,"ny":19,"refTime":"2026-03-08T09:00:00:Z","depth":0,"parameterNumber":2,"parameterNumberName":"U-component_of_WINDS"},"data":[0,0,0,-1.8307,-1.8309,-1.84,-1.84,-1.8515,-1.8516,0,0,0,0,0,0,0,0,0,0,0,-1.8276,-1.8276,-1.8307,-1.8309,-1.84,-1.84,-1.8515,-1.8516,0,0,0,0,0,0,0,0,0,0,0,-1.8276,-1.8276,-1.8277,-1.8309,-1.84,-1.84,-1.8515,-1.8447,0,0,0,0,0,0,0,0,0,0,-1.836,-1.8326,-1.8276,-1.8277,-1.831,-1.84,-1.84,-1.8444,-1.8452,-1.8472,0,-1.8487,0,-1.8503,-1.8523,-1.8524,0,0,0,-1.8313,-1.832,-1.8348,-1.8277,-1.8311,-1.8399,-1.836,-1.8448,-1.8457,-1.8482,-1.8489,-1.8493,-1.8505,-1.8524,-1.8525,-1.8624,-1.8624,0,0,-1.8308,-1.8291,-1.8342,-1.8353,-1.8335,-1.8357,-1.8363,-1.8454,-1.8461,-1.8489,-1.8496,-1.8507,-1.8525,-1.8526,-1.8623,-1.8624,0,0,0,-1.8291,-1.8287,-1.8313,-1.8348,-1.8364,-1.8359,-1.8366,-1.8457,-1.8466,-1.8497,-1.8508,-1.8526,-1.8527,-1.8623,-1.8623,-1.8618,0,0,0,-1.8288,-1.8277,-1.8311,-1.8301,-1.8362,-1.8411,-1.8367,-1.846,-1.8471,-1.8508,-1.8526,-1.8528,-1.8623,-1.8623,-1.8618,-1.8619,0,0,0,-1.8272,-1.8275,-1.8287,-1.83,-1.8338,-1.841,-1.8425,-1.8463,-1.8477,-1.8524,-1.8528,-1.8622,-1.8623,-1.8617,-1.8618,-1.8638,0,0,0,-1.825,-1.8283,-1.8286,-1.8328,-1.8337,-1.8405,-1.8424,-1.8477,-1.8516,-1.8526,-1.8623,-1.8623,-1.8617,-1.8618,-1.8638,-1.8651,-1.8655,0,0,-1.8282,-1.8286,-1.8312,-1.8318,-1.838,-1.8393,-1.8456,-1.851,-1.8533,-1.8593,-1.8595,-1.8618,-1.8618,-1.8638,-1.8687,-1.869,0,0,0,-1.8317,-1.8335,-1.8355,-1.839,-1.843,-1.8466,-1.8511,-1.8531,-1.8583,-1.8559,-1.8632,-1.8633,-1.8646,-1.8653,-1.8655,-1.8667,-1.8626,-1.8626,-1.8626,-1.8338,-1.8361,-1.8406,-1.8441,-1.8475,-1.8522,-1.8552,-1.8588,-1.8605,-1.8622,-1.8639,-1.8665,-1.8673,-1.8675,-1.8687,-1.8649,-1.8649,-1.8649,-1.8649,-1.8386,-1.8415,-1.8435,-1.8484,-1.8511,-1.8554,-1.8602,-1.8612,-1.8657,-1.8654,-1.8667,-1.866,-1.8678,-1.869,-1.8649,-1.8649,-1.8649,-1.8649,-1.8649,-1.8401,-1.8419,-1.8441,-1.8494,-1.8533,-1.857,-1.8612,-1.8636,-1.8659,-1.8671,-1.8692,-1.8692,-1.8695,-1.868,-1.868,-1.868,-1.868,-1.868,-1.868,-1.8407,-1.8432,-1.8463,-1.8508,-1.8534,-1.8571,-1.8619,-1.8646,-1.8682,-1.8697,-1.8697,-1.8711,-1.8675,-1.8664,-1.8682,-1.8681,-1.8681,-1.8681,-1.8681,-1.8444,-1.8439,-1.8487,-1.8512,-1.8568,-1.8605,-1.8635,-1.8688,-1.8714,-1.8735,-1.8747,-1.8717,-1.8723,-1.8721,-1.8713,-1.8742,-1.8742,-1.8742,-1.8742,-1.8456,-1.8461,-1.8514,-1.8553,-1.8595,-1.8627,-1.8682,-1.8721,-1.876,-1.8779,-1.8779,-1.877,-1.8767,-1.8776,-1.8773,-1.8765,-1.8806,-1.8806,-1.8806,-1.848,-1.849,-1.853,-1.8566,-1.8612,-1.8651,-1.8704,-1.8751,-1.8795,-1.8809,-1.8794,-1.8791,-1.8777,-1.8771,-1.8783,-1.8778,-1.8764,0,0]},{"header":{"parameterUnit":"m.s-1","parameterCategory":1,"la1":30.2992,"la2":30.254,"lo1":-89.0895,"lo2":-89.0443,"dy":0.0025,"dx":0.0025,"nx":19,"ny":19,"refTime":"2026-03-08T09:00:00:Z","depth":0,"parameterNumber":3,"parameterNumberName":"V-component_of_WINDS"},"data":[0,0,0,2.5255,2.5255,2.5242,2.5242,2.5229,2.5229,0,0,0,0,0,0,0,0,0,0,0,2.5262,2.5262,2.5255,2.5255,2.5242,2.5242,2.5229,2.5229,0,0,0,0,0,0,0,0,0,0,0,2.5262,2.5262,2.5262,2.5255,2.5242,2.5242,2.523,2.5238,0,0,0,0,0,0,0,0,0,0,2.525,2.5259,2.5262,2.5262,2.5255,2.5242,2.5242,2.5238,2.5237,2.5238,0,2.5238,0,2.5234,2.5229,2.5229,0,0,0,2.5253,2.5259,2.5253,2.5262,2.5255,2.5242,2.5247,2.5238,2.5237,2.5236,2.5238,2.5237,2.5233,2.5229,2.5229,2.5236,2.5236,0,0,2.5254,2.5261,2.5254,2.5253,2.5255,2.5248,2.5247,2.5237,2.5239,2.5238,2.5237,2.5233,2.5229,2.5229,2.5236,2.5236,0,0,0,2.5257,2.5262,2.5256,2.5253,2.5251,2.5247,2.5246,2.524,2.5237,2.5237,2.5233,2.5229,2.5229,2.5236,2.5236,2.525,0,0,0,2.5258,2.5263,2.5256,2.526,2.5251,2.5245,2.5249,2.5238,2.5236,2.5233,2.5229,2.5229,2.5236,2.5236,2.5249,2.5256,0,0,0,2.5262,2.5264,2.5263,2.5261,2.5255,2.5245,2.5242,2.5237,2.5234,2.5229,2.5229,2.5236,2.5236,2.5249,2.5254,2.526,0,0,0,2.5268,2.5275,2.5263,2.5269,2.5255,2.5253,2.5242,2.524,2.5237,2.5229,2.5236,2.5236,2.5248,2.5254,2.526,2.5267,2.5271,0,0,2.528,2.5276,2.5279,2.5269,2.527,2.5255,2.5259,2.5249,2.5242,2.5239,2.5239,2.525,2.5254,2.526,2.5287,2.529,0,0,0,2.5285,2.5288,2.5287,2.5284,2.5277,2.5272,2.5261,2.5257,2.5254,2.5241,2.5252,2.5255,2.5258,2.5262,2.5264,2.5267,2.5238,2.5238,2.5238,2.5313,2.5304,2.5308,2.5298,2.5295,2.5284,2.5282,2.5276,2.5266,2.5269,2.5269,2.5286,2.529,2.5292,2.5295,2.5271,2.5271,2.5271,2.5271,2.5331,2.5333,2.5321,2.5321,2.5312,2.5312,2.5302,2.5296,2.5295,2.5285,2.5288,2.5279,2.5295,2.5297,2.5272,2.5272,2.5272,2.5272,2.5272,2.5348,2.5348,2.5344,2.534,2.5338,2.5327,2.5327,2.5318,2.5309,2.5311,2.5311,2.531,2.531,2.5311,2.5312,2.5312,2.5312,2.5312,2.5312,2.5369,2.5364,2.5365,2.5358,2.5356,2.5352,2.5341,2.5339,2.5334,2.5328,2.5327,2.5319,2.5298,2.5294,2.5313,2.5312,2.5312,2.5312,2.5312,2.5392,2.5386,2.5388,2.5385,2.5377,2.5377,2.5365,2.5361,2.5358,2.5358,2.5349,2.5335,2.533,2.5328,2.5324,2.535,2.535,2.535,2.535,2.5408,2.5405,2.5405,2.5403,2.5399,2.5389,2.5392,2.5384,2.5374,2.5372,2.5367,2.5361,2.5359,2.5355,2.5353,2.5349,2.5381,2.5381,2.5381,2.5423,2.5419,2.5423,2.5414,2.5407,2.5402,2.5405,2.5403,2.539,2.5382,2.537,2.5369,2.5359,2.5356,2.5349,2.5345,2.5338,0,0]}]]